Powrót do katalogu

STARLINK-3856

AktywnyŁącznośćVLEO
NORAD 52459·PAYLOAD·🇺🇸 United States

Wystrzelony May 6, 2022 z Cape Canaveral Space Force Station

Loading…

Następne Przeloty (najbliższe 24 godziny)

TLE

ŚwieżeSource: CelesTrak SupGP

Epoka: Sep 14, 2026, 21:15 UTC

1 52459C 22049J   26257.88590278  .00035677  00000+0  10827-2 0  2575
2 52459  53.1584 280.1535 0001092  90.7713   7.3528 15.33528956    19

Śledź STARLINK-3856 w czasie rzeczywistym z AllMySat

Download on the App Store